When you browse on this site, cookies collect data to enhance your experience and personalize the content and advertising you see.
Visit our Privacy Policy to learn more. By continuing to use the site, you agree to this use of cookies and data.
  • In Österreich
  • Länderverzeichnis
  • Für 7 Tage
  • Wassertemperatur
  • Satellitenkarten
  • Wetterkarte
  • News
  • Widgets
  • user-avatar
    Anmelden

    Stündliche Wetter Baku

    Heute, 26 Mai, Sonntag

    Zeit Temperatur Niederschläge Wind Luftdruck Luftfeuchtigkeit
    00:00 +26°C° 0 mm 6 m/S 755 mmHg 55%
    01:00 +26°C° 0 mm 6 m/S 755 mmHg 54%
    02:00 +26°C° 0 mm 6 m/S 755 mmHg 53%
    03:00 +26°C° 0 mm 7 m/S 755 mmHg 52%
    04:00 +26°C° 0 mm 6 m/S 755 mmHg 51%
    05:00 +26°C° 0 mm 5 m/S 755 mmHg 51%
    06:00 +25°C° 0 mm 4 m/S 756 mmHg 50%
    07:00 +24°C° 0 mm 7 m/S 756 mmHg 54%
    08:00 +24°C° 0 mm 9 m/S 756 mmHg 58%
    09:00 +24°C° 0 mm 11 m/S 757 mmHg 62%
    10:00 +24°C° 0 mm 11 m/S 757 mmHg 62%
    11:00 +24°C° 0 mm 11 m/S 757 mmHg 62%
    12:00 +24°C° 0 mm 12 m/S 757 mmHg 61%
    13:00 +24°C° 0 mm 11 m/S 757 mmHg 62%
    14:00 +24°C° 0 mm 11 m/S 757 mmHg 62%
    15:00 +24°C° 0 mm 11 m/S 756 mmHg 63%
    16:00 +24°C° 0.1 mm 10 m/S 756 mmHg 62%
    17:00 +23°C° 0.1 mm 10 m/S 757 mmHg 62%
    18:00 +23°C° 0.1 mm 10 m/S 757 mmHg 62%
    19:00 +23°C° 0.4 mm 10 m/S 757 mmHg 63%
    20:00 +23°C° 0.4 mm 9 m/S 757 mmHg 64%
    21:00 +23°C° 0.4 mm 9 m/S 758 mmHg 65%
    22:00 +23°C° 0.4 mm 9 m/S 758 mmHg 64%
    23:00 +23°C° 0.4 mm 9 m/S 758 mmHg 64%

    Morgen, 27 Mai, Montag

    Zeit Temperatur Niederschläge Wind Luftdruck Luftfeuchtigkeit
    00:00 +23°C° 0.4 mm 8 m/S 758 mmHg 63%
    01:00 +23°C° 0.2 mm 8 m/S 758 mmHg 61%
    02:00 +23°C° 0.2 mm 7 m/S 758 mmHg 60%
    03:00 +23°C° 0.2 mm 6 m/S 758 mmHg 58%
    04:00 +23°C° 0 mm 8 m/S 759 mmHg 57%
    05:00 +23°C° 0 mm 9 m/S 759 mmHg 56%
    06:00 +23°C° 0 mm 11 m/S 760 mmHg 55%
    07:00 +23°C° 0 mm 12 m/S 760 mmHg 57%
    08:00 +23°C° 0 mm 13 m/S 761 mmHg 60%
    09:00 +23°C° 0 mm 14 m/S 761 mmHg 62%
    10:00 +24°C° 0 mm 13 m/S 761 mmHg 60%
    11:00 +24°C° 0 mm 12 m/S 761 mmHg 57%
    12:00 +26°C° 0 mm 11 m/S 762 mmHg 54%
    13:00 +26°C° 0 mm 11 m/S 762 mmHg 53%
    14:00 +24°C° 0 mm 10 m/S 762 mmHg 53%
    15:00 +24°C° 0 mm 10 m/S 762 mmHg 52%
    16:00 +24°C° 0 mm 9 m/S 762 mmHg 54%
    17:00 +23°C° 0 mm 8 m/S 762 mmHg 55%
    18:00 +23°C° 0 mm 7 m/S 762 mmHg 56%
    19:00 +23°C° 0 mm 6 m/S 762 mmHg 57%
    20:00 +22°C° 0 mm 6 m/S 762 mmHg 58%
    21:00 +22°C° 0 mm 5 m/S 763 mmHg 59%
    22:00 +22°C° 0 mm 4 m/S 763 mmHg 60%
    23:00 +22°C° 0 mm 3 m/S 763 mmHg 60%

    übermorgen, 28 Mai, Dienstag

    Zeit Temperatur Niederschläge Wind Luftdruck Luftfeuchtigkeit
    00:00 +23°C° 0 mm 1 m/S 763 mmHg 60%
    01:00 +23°C° 0 mm 2 m/S 763 mmHg 59%
    02:00 +23°C° 0 mm 2 m/S 763 mmHg 59%
    03:00 +23°C° 0 mm 2 m/S 763 mmHg 58%
    04:00 +23°C° 0 mm 2 m/S 763 mmHg 57%
    05:00 +23°C° 0 mm 2 m/S 763 mmHg 55%
    06:00 +24°C° 0 mm 3 m/S 763 mmHg 53%
    07:00 +23°C° 0 mm 4 m/S 764 mmHg 54%
    08:00 +25°C° 0 mm 4 m/S 764 mmHg 54%
    09:00 +25°C° 0 mm 5 m/S 764 mmHg 55%
    10:00 +26°C° 0 mm 5 m/S 764 mmHg 52%
    11:00 +26°C° 0 mm 5 m/S 764 mmHg 50%
    12:00 +27°C° 0 mm 4 m/S 764 mmHg 48%
    13:00 +27°C° 0 mm 4 m/S 764 mmHg 48%
    14:00 +26°C° 0 mm 4 m/S 764 mmHg 49%
    15:00 +26°C° 0 mm 4 m/S 763 mmHg 50%
    16:00 +26°C° 0 mm 4 m/S 763 mmHg 51%
    17:00 +26°C° 0 mm 4 m/S 763 mmHg 53%
    18:00 +25°C° 0 mm 4 m/S 763 mmHg 54%
    19:00 +25°C° 0 mm 3 m/S 763 mmHg 56%
    20:00 +25°C° 0 mm 3 m/S 764 mmHg 58%
    21:00 +24°C° 0 mm 3 m/S 764 mmHg 59%
    22:00 +24°C° 0 mm 2 m/S 764 mmHg 60%
    23:00 +24°C° 0 mm 2 m/S 763 mmHg 61%

    29 Mai, Mittwoch

    Zeit Temperatur Niederschläge Wind Luftdruck Luftfeuchtigkeit
    00:00 +24°C° 0 mm 2 m/S 763 mmHg 61%
    01:00 +24°C° 0 mm 2 m/S 763 mmHg 63%
    02:00 +24°C° 0 mm 2 m/S 763 mmHg 64%
    03:00 +23°C° 0 mm 2 m/S 763 mmHg 65%
    04:00 +23°C° 0 mm 1 m/S 763 mmHg 64%
    05:00 +24°C° 0 mm 1 m/S 763 mmHg 63%
    06:00 +24°C° 0 mm 1 m/S 763 mmHg 61%
    07:00 +24°C° 0 mm 1 m/S 763 mmHg 58%
    08:00 +25°C° 0 mm 1 m/S 763 mmHg 54%
    09:00 +26°C° 0 mm 1 m/S 763 mmHg 51%
    10:00 +26°C° 0 mm 1 m/S 763 mmHg 48%
    11:00 +27°C° 0 mm 1 m/S 763 mmHg 46%
    12:00 +28°C° 0 mm 2 m/S 763 mmHg 43%
    13:00 +28°C° 0 mm 2 m/S 762 mmHg 43%
    14:00 +28°C° 0 mm 2 m/S 762 mmHg 43%
    15:00 +28°C° 0 mm 3 m/S 762 mmHg 42%
    16:00 +28°C° 0 mm 2 m/S 762 mmHg 44%
    17:00 +28°C° 0 mm 2 m/S 762 mmHg 45%
    18:00 +27°C° 0 mm 2 m/S 762 mmHg 47%
    19:00 +27°C° 0 mm 2 m/S 762 mmHg 49%
    20:00 +26°C° 0 mm 1 m/S 762 mmHg 51%
    21:00 +26°C° 0 mm 1 m/S 762 mmHg 52%
    22:00 +26°C° 0 mm 2 m/S 762 mmHg 53%
    23:00 +26°C° 0 mm 2 m/S 762 mmHg 54%

    30 Mai, Donnerstag

    Zeit Temperatur Niederschläge Wind Luftdruck Luftfeuchtigkeit
    00:00 +25°C° 0 mm 2 m/S 761 mmHg 55%
    01:00 +25°C° 0 mm 2 m/S 761 mmHg 56%
    02:00 +25°C° 0 mm 2 m/S 761 mmHg 57%
    03:00 +25°C° 0 mm 2 m/S 761 mmHg 58%
    04:00 +25°C° 0 mm 2 m/S 761 mmHg 58%
    05:00 +25°C° 0 mm 1 m/S 761 mmHg 57%
    06:00 +25°C° 0 mm 1 m/S 761 mmHg 57%
    07:00 +25°C° 0 mm 1 m/S 761 mmHg 54%
    08:00 +26°C° 0 mm 1 m/S 761 mmHg 52%
    09:00 +27°C° 0 mm 1 m/S 762 mmHg 49%
    10:00 +27°C° 0 mm 1 m/S 761 mmHg 47%
    11:00 +28°C° 0 mm 2 m/S 761 mmHg 45%
    12:00 +29°C° 0 mm 2 m/S 761 mmHg 43%
    13:00 +29°C° 0 mm 3 m/S 761 mmHg 42%
    14:00 +29°C° 0 mm 3 m/S 761 mmHg 42%
    15:00 +29°C° 0 mm 4 m/S 760 mmHg 42%
    16:00 +28°C° 0 mm 3 m/S 760 mmHg 44%
    17:00 +28°C° 0 mm 3 m/S 760 mmHg 45%
    18:00 +27°C° 0 mm 2 m/S 760 mmHg 47%
    19:00 +27°C° 0 mm 3 m/S 761 mmHg 48%
    20:00 +27°C° 0 mm 3 m/S 761 mmHg 50%
    21:00 +26°C° 0 mm 3 m/S 761 mmHg 51%
    22:00 +26°C° 0 mm 3 m/S 761 mmHg 52%
    23:00 +26°C° 0 mm 4 m/S 761 mmHg 52%

    31 Mai, Freitag

    Zeit Temperatur Niederschläge Wind Luftdruck Luftfeuchtigkeit
    00:00 +26°C° 0 mm 4 m/S 760 mmHg 53%
    01:00 +26°C° 0 mm 4 m/S 760 mmHg 54%
    02:00 +25°C° 0 mm 3 m/S 760 mmHg 55%
    03:00 +25°C° 0 mm 3 m/S 760 mmHg 56%
    04:00 +26°C° 0 mm 3 m/S 760 mmHg 55%
    05:00 +26°C° 0 mm 3 m/S 760 mmHg 54%
    06:00 +26°C° 0 mm 2 m/S 760 mmHg 52%
    07:00 +27°C° 0 mm 2 m/S 761 mmHg 48%
    08:00 +28°C° 0 mm 2 m/S 761 mmHg 43%
    09:00 +28°C° 0 mm 2 m/S 761 mmHg 38%
    10:00 +29°C° 0 mm 2 m/S 761 mmHg 37%
    11:00 +29°C° 0 mm 2 m/S 760 mmHg 35%
    12:00 +30°C° 0 mm 3 m/S 760 mmHg 34%
    13:00 +30°C° 0 mm 3 m/S 760 mmHg 35%
    14:00 +30°C° 0 mm 3 m/S 760 mmHg 35%
    15:00 +30°C° 0 mm 3 m/S 760 mmHg 36%
    16:00 +29°C° 0 mm 2 m/S 760 mmHg 37%
    17:00 +29°C° 0 mm 2 m/S 760 mmHg 39%
    18:00 +28°C° 0 mm 2 m/S 759 mmHg 40%
    19:00 +28°C° 0 mm 2 m/S 760 mmHg 42%
    20:00 +27°C° 0 mm 2 m/S 760 mmHg 44%
    21:00 +27°C° 0 mm 1 m/S 760 mmHg 46%
    22:00 +27°C° 0 mm 2 m/S 760 mmHg 47%
    23:00 +26°C° 0 mm 2 m/S 760 mmHg 48%
    Mehr zeigen